Regional Weather Roundup
Issued by NWS

Home | Current Version | Previous Version | Text Only | Print | Product List | Glossary On
Versions: 1 2 3 4 5 6 7 8 9 10 11 12 13 14 15 16 17 18 19 20 21 22 23 24 25 26 27 28 29 30 31 32 33 34 35 36 37 38 39 40 41 42 43 44 45 46 47 48 49 50
000
ASUS43 KBIS 020720
RWRND

NORTH DAKOTA REGIONAL WEATHER ROUNDUP
NATIONAL WEATHER SERVICE BISMARCK ND
200 AM CDT SAT AUG 02 2014

NOTE: "FAIR" INDICATES FEW OR NO CLOUDS BELOW 12,000 FEET WITH NO
SIGNIFICANT WEATHER AND/OR OBSTRUCTIONS TO VISIBILITY.


NDZ001>003-009>011-017-020800-
NORTHWEST NORTH DAKOTA

CITY           SKY/WX    TMP DP  RH WIND       PRES   REMARKS
WILLISTON      MOCLDY    68  55  63 CALM      30.08S
MINOT          CLEAR     62  58  86 CALM      30.08F
MINOT AFB      CLEAR     58  58  99 CALM      30.08F
$$

NDZ018>021-031>035-040>046-020800-
SOUTHWEST NORTH DAKOTA

CITY           SKY/WX    TMP DP  RH WIND       PRES   REMARKS
BISMARCK       CLEAR     64  61  90 E5        30.10F
DICKINSON      CLEAR     60  55  83 S3        30.12F
GARRISON         N/A     59  57  93 CALM      30.10S
HETTINGER ARPT CLEAR     62  59  90 NE12      30.14R
$$

NDZ004>008-012>016-024-026-027-054-020800-
NORTHEAST NORTH DAKOTA

CITY           SKY/WX    TMP DP  RH WIND       PRES   REMARKS
GRAND FORKS    CLEAR     59  57  93 CALM      30.08R
GRND FRKS AFB  CLEAR     61  61  99 SW5       30.09R
DEVILS LAKE    CLEAR     70  57  64 S7        30.09R
$$

NDZ022-023-025-028>030-036>039-047>053-020800-
SOUTHEAST NORTH DAKOTA

CITY           SKY/WX    TMP DP  RH WIND       PRES   REMARKS
FARGO          PTCLDY    59  56  89 CALM      30.09S FOG
JAMESTOWN      CLOUDY    67  58  72 S5        30.11R
$$




USA.gov is the U.S. government's official web portal to all federal, state and local government web resources and services.